Regional Weather Roundup
Issued by NWS Kansas City/Pleasant Hill, MO

Home | Current Version | Previous Version | Graphics & Text | Print | Product List | Glossary Off
Versions: 1 2 3 4 5 6 7 8 9 10 11 12 13 14 15 16 17 18 19 20 21 22 23 24 25 26 27 28 29 30 31 32 33 34 35 36 37 38 39 40 41 42 43 44 45 46 47 48 49 50

000
ASUS43 KEAX 311410
RWREAX

WEATHER ROUNDUP FOR EASTERN KANSAS AND NORTHWEST MISSOURI
NATIONAL WEATHER SERVICE KANSAS CITY/PLEASANT HILL MO
900 AM CDT TUE MAY 31 2016

KSZ040-057-103>105-MOZ028-029-037-043-311500-
...KANSAS CITY METROPOLITAN AREA...

CITY           SKY/WX    TMP DP  RH WIND       PRES   REMARKS
K.C. INTL      CLOUDY    68  62  81 SE9       29.94R
K.C. DOWNTOWN  CLOUDY    70  63  78 S8        29.94R
LEES SUMMIT    CLOUDY    68  63  84 S7        29.96R
OLATHE - IXD   CLOUDY    67  64  90 SE7       29.96R
OLATHE - OJC   CLOUDY    65  62  90 S10       29.95R
LAWRENCE       CLOUDY    68  64  87 SE9       29.94R

$$

MOZ001>008-011>017-020>025-030>033-038>040-044>046-053-054-311500-
...NORTHERN AND CENTRAL MISSOURI...

CITY           SKY/WX    TMP DP  RH WIND       PRES   REMARKS
ST. JOSEPH     CLOUDY    70  63  78 SE7       29.94R
MOSBY          CLOUDY    68  63  83 SE7       29.94S
WARRENSBURG    MOSUNNY   68  64  88 E7        29.93F
WHITEMAN AFB   PTSUNNY   65  65 100 SE8       29.93F
CLINTON        CLOUDY    68  66  94 SE6       29.96S
SEDALIA        CLOUDY    68  63  84 SE3       29.98S
WARSAW         NOT AVBL
CHILLICOTHE      N/A     68  64  87 SE6       29.97F
KIRKSVILLE     CLOUDY    67  63  87 CALM      29.98F

$$

MOZ041-047>049-056>058-063>065-088>090-097-311500-
...EASTERN AND SOUTHERN MISSOURI...

CITY           SKY/WX    TMP DP  RH WIND       PRES   REMARKS
ST. LOUIS INTL LGT RAIN  72  64  76 CALM      30.00R
SPIRIT OF STL  PTSUNNY   68  66  93 W3        29.98S
COLUMBIA       CLOUDY    67  63  87 SE8       29.99R
JEFFERSON CITY CLOUDY    67  63  87 SE7       29.98S
ROLLA          CLOUDY    67  61  81 CALM      29.97F
SPRINGFIELD    CLOUDY    71  62  73 S7        29.98R
BRANSON        CLOUDY    66  64  94 SE7       30.00R
JOPLIN         CLOUDY    71  66  84 SW5       29.96R
WEST PLAINS    LGT RAIN  66  62  87 SE3       30.03R

$$

IAZ060-094-KSZ022-034>040-054-083-096-NEZ052-066-093-311500-
...KANSAS...SOUTHEAST NEBRASKA AND IOWA...

CITY           SKY/WX    TMP DP  RH WIND       PRES   REMARKS
TOPEKA         CLOUDY    69  62  78 W5        29.94R
MANHATTAN      CLOUDY    66  59  78 CALM      29.95R
EMPORIA        CLOUDY    65  63  93 S7        29.95R
CHANUTE        CLOUDY    67  64  90 S6        29.96F
WICHITA        TSTM      63  61  93 E7        29.94F
OMAHA          CLOUDY    70  61  73 NW12      29.91R
LINCOLN        CLOUDY    65  59  81 NW12      29.95S
FALLS CITY     LGT RAIN  71  63  75 NW10      29.91R
LAMONI         PTSUNNY   66  60  81 SE9       29.95S
DES MOINES     CLOUDY    71  61  70 S7        29.92F

$$




USA.gov is the U.S. government's official web portal to all federal, state and local government web resources and services.